sat.trackr.live / text

‹ back to catalog

STARLINK-6049

NORAD 56796 · 2023-078AF

PAYLOAD ACTIVE UNKNOWN

§ Identity

Operator
Country
US
Launch date
2023-05-31
Launch site
AFWTR
Launch vehicle
Mass (kg)
RCS (m²)

Purposes: comms

External: N2YO · Heavens-Above · Gunter

§ Orbital elements

Epoch: 2026-09-20T08:01:38.693568Z

Period
96.11 min
Inclination
69.9998°
Eccentricity
0.0003556
Mean motion
14.98327281 rev/d
Perigee alt
569.6 km
Apogee alt
574.5 km
Semi-major
6,950.2 km
B*
-1.0828e-4
RAAN
213.7849°
Arg perigee
266.4575°
Mean anomaly
93.6177°
Rev number
18,183

§ Raw data

STARLINK-60491 56796U 23078AF  26263.33447562 -.00001385  00000+0 -10828-3 0  99962 56796  69.9998 213.7849 0003556 266.4575  93.6177 14.98327281181832

JSON: /api/v1/satellites/56796 · /tle

For live sub-satellite position, see the globe view (requires WebGL).

§ Visibility from observer

Set your observer location to see the next 7 days of passes ≥ 10°. The values pass through the URL so the page stays shareable.

No JS? Fill the form by hand. The geolocation button needs JavaScript.